Flag for Canada Weather past 2 weeks in Moose Jaw, Saskatchewan, Canada

Now
50 °F

Clear.


Feels Like: 44 °F
Forecast: 49 / 80 °F
Wind: 17 mph from Southeast

Location: Regina Weather Station

Current Time: Sep 17, 2014 at 11:45:18 PM

Latest Report: Sep 17, 2014 at 11:00 PM


Visibility: 15 mi

Pressure: 29.91 "Hg

Humidity: 94%

Dew point: 48 °F

Location of Moose JawLocation

Historic Weather in Moose Jaw — Graph

°F

Moose Jaw temperature yesterday

Maximum temperature yesterday: 75 °F (at 4:00 PM)
Minimum temperature yesterday: 39 °F (at 4:00 AM)
Average temperature yesterday: 56 °F

Past Weeks' High & Low Weather Summary

 TemperatureHumidityPressure
High79 °F (Sep 7, 2:00 PM)100% (Sep 4, 2:00 AM)30.62 "Hg (Sep 4, 2:00 AM)
Low28 °F (Sep 12, 3:00 AM)31% (Sep 15, 4:00 PM)29.59 "Hg (Sep 8, 1:00 AM)
Average50 °F75%30.10 "Hg
* Reported Sep 2 11:00 PM — Sep 17 11:00 PM, Moose Jaw, Weather by CustomWeather, © 2014

Note: Actual official high and low records may vary slightly from our data, if they occured in-between our weather recording intervals... More about our weather records

Advertising

Moose Jaw weather history for previous 24 hours

 ConditionsComfort  
Time TempWeatherWind HumidityBarometerVisibility
11:00 PM
Sep 17
50 °FClear.17 mph94%29.91 "Hg15 mi
10:00 PM50 °FPassing clouds.17 mph88%29.93 "Hg15 mi
9:00 PM52 °FPassing clouds.20 mph82%29.93 "Hg15 mi
8:00 PM55 °FPassing clouds.17 mph77%29.93 "Hg15 mi
7:00 PM59 °FScattered clouds.16 mph68%29.93 "Hg15 mi
6:00 PM64 °FPassing clouds.17 mph60%29.93 "Hg15 mi
5:00 PM66 °FPassing clouds.14 mph56%29.94 "Hg15 mi
4:00 PM68 °FPassing clouds.16 mph49%29.95 "Hg15 mi
3:00 PM66 °FPassing clouds.17 mph52%29.97 "Hg15 mi
2:00 PM66 °FPassing clouds.17 mph56%29.98 "Hg15 mi
1:00 PM63 °FPassing clouds.17 mph64%30.00 "Hg15 mi
12:00 PM59 °FPassing clouds.16 mph68%30.02 "Hg15 mi
11:00 AM55 °FPartly sunny.14 mph77%30.03 "Hg15 mi
10:00 AM48 °FLow clouds.14 mph94%30.03 "Hg12 mi
9:00 AM46 °FLow clouds.13 mph100%30.02 "Hg12 mi
8:00 AM46 °FLow clouds.14 mph93%30.00 "Hg12 mi
7:00 AM46 °FLow clouds.16 mph100%29.98 "Hg10 mi
6:00 AM46 °FPassing clouds.13 mph100%29.96 "Hg15 mi
5:00 AM46 °FPassing clouds.10 mph93%29.95 "Hg15 mi
4:00 AM48 °FClear.9 mph87%29.94 "Hg15 mi
3:00 AM48 °FClear.7 mph76%29.94 "Hg15 mi
2:00 AM48 °FClear.9 mph76%29.94 "Hg15 mi
1:00 AM50 °FClear.7 mph76%29.94 "Hg15 mi
12:00 AM50 °FClear.5 mph76%29.91 "Hg15 mi
11:00 PM
Sep 16
50 °FClear.6 mph76%29.92 "Hg15 mi
Weather by CustomWeather, © 2014

See weather overviewHow to use our weather pages